Time,TemperatureF,DewpointF,PressureIn,WindDirection,WindDirectionDegrees,WindSpeedMPH,WindSpeedGustMPH,Humidity,HourlyPrecipIn,Conditions,Clouds,dailyrainin,SolarRadiationWatts/m^2,SoftwareType,DateUTC
2013-08-29 00:46:00,73.0,67.0,-100.00,NW,307,3.0,5.0,81,0.00,,,0.00,0.000000,,2013-08-29 04:46:00,
2013-08-29 00:54:00,73.0,67.0,-100.00,NW,307,3.0,5.0,81,0.00,,,0.00,0.000000,,2013-08-29 04:54:00,
2013-08-29 01:05:00,73.0,67.0,-100.00,NW,307,3.0,5.0,81,0.00,,,0.00,0.000000,,2013-08-29 05:05:00,
2013-08-29 01:42:00,72.0,65.0,-100.00,NW,307,1.0,6.0,78,0.00,,,0.00,0.000000,,2013-08-29 05:42:00,
2013-08-29 01:52:00,72.0,65.0,-100.00,NW,307,1.0,6.0,78,0.00,,,0.00,0.000000,,2013-08-29 05:52:00,
2013-08-29 02:02:00,72.0,65.0,-100.00,NW,307,1.0,6.0,78,0.00,,,0.00,0.000000,,2013-08-29 06:02:00,
2013-08-29 02:43:00,72.0,68.0,-100.00,WNW,301,3.0,4.0,86,0.00,,,0.00,0.000000,,2013-08-29 06:43:00,
2013-08-29 02:52:00,72.0,68.0,-100.00,WNW,301,3.0,4.0,86,0.00,,,0.00,0.000000,,2013-08-29 06:52:00,
2013-08-29 03:01:00,72.0,68.0,-100.00,WNW,301,3.0,4.0,86,0.00,,,0.00,0.000000,,2013-08-29 07:01:00,
2013-08-29 03:42:00,72.0,64.0,-100.00,WNW,299,4.0,7.0,77,0.00,,,0.00,0.000000,,2013-08-29 07:42:00,
2013-08-29 03:53:00,72.0,64.0,-100.00,WNW,299,4.0,7.0,77,0.00,,,0.00,0.000000,,2013-08-29 07:53:00,
2013-08-29 04:02:00,72.0,64.0,-100.00,WNW,299,4.0,7.0,77,0.00,,,0.00,0.000000,,2013-08-29 08:02:00,
2013-08-29 04:42:00,72.0,65.0,-100.00,WNW,302,4.0,6.0,78,0.00,,,0.00,0.000000,,2013-08-29 08:42:00,
2013-08-29 04:52:00,72.0,65.0,-100.00,WNW,302,4.0,6.0,78,0.00,,,0.00,0.000000,,2013-08-29 08:52:00,
2013-08-29 05:01:00,72.0,65.0,-100.00,WNW,302,4.0,6.0,78,0.00,,,0.00,0.000000,,2013-08-29 09:01:00,
2013-08-29 05:06:00,72.0,66.0,-100.00,WNW,302,4.0,7.0,81,0.00,,,0.00,0.000000,,2013-08-29 09:06:00,
2013-08-29 05:43:00,72.0,66.0,-100.00,WNW,302,4.0,7.0,81,0.00,,,0.00,0.000000,,2013-08-29 09:43:00,
2013-08-29 05:55:00,72.0,66.0,-100.00,WNW,302,4.0,7.0,81,0.00,,,0.00,0.000000,,2013-08-29 09:55:00,
2013-08-29 06:43:00,71.0,66.0,-100.00,WNW,298,3.0,6.0,83,0.00,,,0.00,0.000000,,2013-08-29 10:43:00,
2013-08-29 06:53:00,71.0,66.0,-100.00,WNW,298,3.0,6.0,83,0.00,,,0.00,0.000000,,2013-08-29 10:53:00,
2013-08-29 07:03:00,71.0,66.0,-100.00,WNW,298,3.0,6.0,83,0.00,,,0.00,0.000000,,2013-08-29 11:03:00,
2013-08-29 07:42:00,71.0,65.0,-100.00,WNW,299,3.0,5.0,81,0.00,,,0.00,1.000000,,2013-08-29 11:42:00,
2013-08-29 07:52:00,71.0,65.0,-100.00,WNW,299,3.0,5.0,81,0.00,,,0.00,1.000000,,2013-08-29 11:52:00,
2013-08-29 08:02:00,71.0,65.0,-100.00,WNW,299,3.0,5.0,81,0.00,,,0.00,1.000000,,2013-08-29 12:02:00,
2013-08-29 08:42:00,73.0,67.0,-100.00,NW,311,4.0,5.0,81,0.00,,,0.00,24.000000,,2013-08-29 12:42:00,
2013-08-29 08:52:00,73.0,67.0,-100.00,NW,311,4.0,5.0,81,0.00,,,0.00,24.000000,,2013-08-29 12:52:00,
2013-08-29 09:02:00,73.0,67.0,-100.00,NW,311,4.0,5.0,81,0.00,,,0.00,24.000000,,2013-08-29 13:02:00,
2013-08-29 09:42:00,77.0,70.0,-100.00,WNW,299,4.0,6.0,78,0.00,,,0.00,146.000000,,2013-08-29 13:42:00,
2013-08-29 09:52:00,77.0,70.0,-100.00,WNW,299,4.0,6.0,78,0.00,,,0.00,146.000000,,2013-08-29 13:52:00,
2013-08-29 10:02:00,77.0,70.0,-100.00,WNW,299,4.0,6.0,78,0.00,,,0.00,146.000000,,2013-08-29 14:02:00,
2013-08-29 10:42:00,83.0,72.0,-100.00,North,350,2.0,7.0,70,0.00,,,0.00,350.000000,,2013-08-29 14:42:00,
2013-08-29 10:52:00,83.0,72.0,-100.00,North,350,2.0,7.0,70,0.00,,,0.00,350.000000,,2013-08-29 14:52:00,
2013-08-29 11:02:00,83.0,72.0,-100.00,North,350,2.0,7.0,70,0.00,,,0.00,350.000000,,2013-08-29 15:02:00,
2013-08-29 11:43:00,81.0,71.0,-100.00,ESE,116,1.0,5.0,71,0.00,,,0.00,326.000000,,2013-08-29 15:43:00,
2013-08-29 11:53:00,81.0,71.0,-100.00,ESE,116,1.0,5.0,71,0.00,,,0.00,326.000000,,2013-08-29 15:53:00,
2013-08-29 12:05:00,81.0,71.0,-100.00,ESE,116,1.0,5.0,71,0.00,,,0.00,326.000000,,2013-08-29 16:05:00,
2013-08-29 12:43:00,84.0,71.0,-100.00,WSW,250,1.0,4.0,66,0.00,,,0.00,417.000000,,2013-08-29 16:43:00,
2013-08-29 12:54:00,84.0,71.0,-100.00,WSW,250,1.0,4.0,66,0.00,,,0.00,417.000000,,2013-08-29 16:54:00,
2013-08-29 13:04:00,84.0,71.0,-100.00,WSW,250,1.0,4.0,66,0.00,,,0.00,417.000000,,2013-08-29 17:04:00,
2013-08-29 13:53:00,89.0,72.0,-100.00,SSE,165,3.0,5.0,58,0.00,,,0.00,780.000000,,2013-08-29 17:53:00,
2013-08-29 14:02:00,89.0,72.0,-100.00,SSE,165,3.0,5.0,58,0.00,,,0.00,780.000000,,2013-08-29 18:02:00,
2013-08-29 14:42:00,91.0,70.0,-100.00,WSW,250,2.0,6.0,50,0.00,,,0.00,928.000000,,2013-08-29 18:42:00,
2013-08-29 14:52:00,91.0,70.0,-100.00,WSW,250,2.0,6.0,50,0.00,,,0.00,928.000000,,2013-08-29 18:52:00,
2013-08-29 15:01:00,91.0,70.0,-100.00,WSW,250,2.0,6.0,50,0.00,,,0.00,928.000000,,2013-08-29 19:01:00,
2013-08-29 15:42:00,90.0,71.0,-100.00,ENE,60,2.0,4.0,53,0.00,,,0.00,755.000000,,2013-08-29 19:42:00,
2013-08-29 15:53:00,90.0,71.0,-100.00,ENE,60,2.0,4.0,53,0.00,,,0.00,755.000000,,2013-08-29 19:53:00,
2013-08-29 16:02:00,90.0,71.0,-100.00,ENE,60,2.0,4.0,53,0.00,,,0.00,755.000000,,2013-08-29 20:02:00,
2013-08-29 16:42:00,87.0,76.0,-100.00,SE,127,2.0,5.0,71,0.00,,,0.00,465.000000,,2013-08-29 20:42:00,
2013-08-29 16:52:00,87.0,76.0,-100.00,SE,127,2.0,5.0,71,0.00,,,0.00,465.000000,,2013-08-29 20:52:00,
2013-08-29 17:01:00,87.0,76.0,-100.00,SE,127,2.0,5.0,71,0.00,,,0.00,465.000000,,2013-08-29 21:01:00,
2013-08-29 17:44:00,86.0,73.0,-100.00,ESE,107,2.0,4.0,65,0.00,,,0.00,450.000000,,2013-08-29 21:44:00,
2013-08-29 17:54:00,86.0,73.0,-100.00,ESE,107,2.0,4.0,65,0.00,,,0.00,450.000000,,2013-08-29 21:54:00,
2013-08-29 18:04:00,86.0,73.0,-100.00,ESE,107,2.0,4.0,65,0.00,,,0.00,450.000000,,2013-08-29 22:04:00,
2013-08-29 18:43:00,83.0,75.0,-100.00,East,101,1.0,3.0,77,0.00,,,0.00,95.000000,,2013-08-29 22:43:00,
2013-08-29 18:53:00,83.0,75.0,-100.00,East,101,1.0,3.0,77,0.00,,,0.00,95.000000,,2013-08-29 22:53:00,
2013-08-29 19:03:00,83.0,75.0,-100.00,East,101,1.0,3.0,77,0.00,,,0.00,95.000000,,2013-08-29 23:03:00,
2013-08-29 19:43:00,82.0,74.0,-100.00,North,4,1.0,3.0,78,0.00,,,0.00,90.000000,,2013-08-29 23:43:00,
2013-08-29 19:53:00,82.0,74.0,-100.00,North,4,1.0,3.0,78,0.00,,,0.00,90.000000,,2013-08-29 23:53:00,
2013-08-29 20:02:00,82.0,74.0,-100.00,North,4,1.0,3.0,78,0.00,,,0.00,90.000000,,2013-08-30 00:02:00,
2013-08-29 20:42:00,79.0,74.0,-100.00,NW,316,0.0,2.0,84,0.00,,,0.00,17.000000,,2013-08-30 00:42:00,
2013-08-29 20:52:00,79.0,74.0,-100.00,NW,316,0.0,2.0,84,0.00,,,0.00,17.000000,,2013-08-30 00:52:00,
2013-08-29 21:01:00,79.0,74.0,-100.00,NW,316,0.0,2.0,84,0.00,,,0.00,17.000000,,2013-08-30 01:01:00,
2013-08-29 21:42:00,77.0,74.0,-100.00,NW,322,0.0,3.0,91,0.00,,,0.00,0.000000,,2013-08-30 01:42:00,
2013-08-29 21:52:00,77.0,74.0,-100.00,NW,322,0.0,3.0,91,0.00,,,0.00,0.000000,,2013-08-30 01:52:00,
2013-08-29 22:02:00,77.0,74.0,-100.00,NW,322,0.0,3.0,91,0.00,,,0.00,0.000000,,2013-08-30 02:02:00,
2013-08-29 22:42:00,77.0,74.0,-100.00,WNW,301,1.0,4.0,90,0.00,,,0.00,0.000000,,2013-08-30 02:42:00,
2013-08-29 22:52:00,77.0,74.0,-100.00,WNW,301,1.0,4.0,90,0.00,,,0.00,0.000000,,2013-08-30 02:52:00,
2013-08-29 23:02:00,77.0,74.0,-100.00,WNW,301,1.0,4.0,90,0.00,,,0.00,0.000000,,2013-08-30 03:02:00,
2013-08-29 23:43:00,76.0,71.0,-100.00,WNW,288,2.0,4.0,85,0.00,,,0.00,0.000000,,2013-08-30 03:43:00,
2013-08-29 23:55:00,76.0,71.0,-100.00,WNW,288,2.0,4.0,85,0.00,,,0.00,0.000000,,2013-08-30 03:55:00,